TIANWANG 1A (TW-1A)
1 40928U 15051D   19312.80141729 +.00002250 +00000-0 +55601-4 0  9993
2 40928 097.1339 340.8986 0008949 275.3613 200.0646 15.41483722231216
LAPAN A2
1 40931U 15052B   19308.14990593  .00000506  00000-0 -18695-4 0  9996
2 40931   5.9899 149.2330 0013523 313.9745  46.0045 14.76617760221769
LQSAT
1 40958U 15057A   19313.09096921 -.00000004  00000-0  69430-5 0  9999
2 40958  97.8841  18.2996 0019157 138.1380 222.1297 14.73095160219910
CHUBUSAT 2
1 41338U 16012B   19311.41527536 +.00000321 +00000-0 +18244-4 0  9996
2 41338 031.0039 324.0695 0013753 066.9859 293.2226 15.00205023204211
CHUBUSAT 3
1 41339U 16012C   19313.03154361  .00000297  00000-0  16317-4 0  9990
2 41339  31.0117 311.7068 0013473  89.7544 270.4591 15.00377110204454
OUFTI-1
1 41458U 16025C   19311.24728555 +.00001235 +00000-0 +66749-4 0  9996
2 41458 098.1003 045.2957 0164323 240.7760 117.6947 15.06151901193874
E-STAR-2
1 41459U 16025D   19312.76032241 +.00000710 +00000-0 +40708-4 0  9999
2 41459 098.0969 046.4616 0165563 237.2044 121.3269 15.05763981194071
AAUSAT 4
1 41460U 16025E   19311.68968863  .00001818  00000-0  94357-4 0  9998
2 41460  98.0944  46.9508 0155620 232.0595 126.6516 15.07780468194061
NUSAT 1
1 41557U 16033B   19311.62324356  .00001193  00000-0  46983-4 0  9999
2 41557  97.4141  38.2877 0014541 150.6861 209.5197 15.27509063191751
BEESAT 4
1 41619U 16040W   19312.85232001  .00001287  00000-0  56906-4 0  9997
2 41619  97.3517  12.3018 0009884 235.0583 124.9727 15.23441778175653
PRATHAM
1 41783U 16059A   19311.58373015  .00000042  00000-0  17363-4 0  9991
2 41783  98.0508   7.9052 0032339 298.7786  61.0169 14.63018703166295
ALSAT 1N
1 41789U 16059G   19312.74952711 +.00000058 +00000-0 +20075-4 0  9993
2 41789 098.0530 011.3530 0026900 283.6374 076.1821 14.64273832166580
NAYIF 1
1 42017U 17008BX  19311.62776698 +.00001368 +00000-0 +56229-4 0  9992
2 42017 097.3888 017.1678 0007165 041.4807 318.6974 15.25869565151560
MAX VALIER SAT
1 42778U 17036P   19312.84293160  .00000846  00000-0  39700-4 0  9995
2 42778  97.3378   7.2353 0013999  83.4129 276.8701 15.22234951132017
